Location: Bear Trap Landing
(45.2437°N, 67.7928°W)
Time: 14:41:41
(UTC+00:00)

Envisat - Pass Details

Date: 06 March 2021
Orbit: 764 x 766 km, 98.1° (Epoch: 17 April)

Event Time Altitude Azimuth Distance (km) Brightness Sun altitude
Rises 09:47:23 0° 18° (NNE) 3,244 6.6 -13.6°
Reaches altitude 10° 09:49:48 10° 24° (NNE) 2,312 5.9 -13.2°
Maximum altitude 09:54:43 48° 99° (E) 1,001 4.1 -12.3°
Drops below altitude 10° 09:59:35 10° 173° (S) 2,294 5.5 -11.4°
Sets 10:01:58 0° 179° (S) 3,215 6.2 -11.0°
